Location: Gleizolles
(44.4833°N, 6.7667°E)
Time: 00:13:28
(UTC+00:00)

Vanguard 2 Rocket - Pass Details

Date: 18 June 2024
Orbit: 555 x 3302 km, 32.9° (Epoch: 24 July)

Event Time Altitude Azimuth Distance (km) Brightness Sun altitude
Rises 04:35:03 0° 248° (WSW) 7,284 10.8 6.4°
Reaches altitude 10° 04:40:15 10° 245° (WSW) 6,214 10.5 7.2°
Maximum altitude 04:58:25 52° 177° (S) 3,094 9.6 10.2°
Drops below altitude 10° 05:10:28 10° 105° (ESE) 4,274 11.4 12.2°
Sets 05:13:20 0° 100° (E) 4,954 11.8 12.6°
